[[{"header":{"parameterUnit":"m.s-1","parameterCategory":1,"la1":30.2991,"la2":30.254,"lo1":-89.0895,"lo2":-89.0444,"dy":0.0017,"dx":0.0017,"nx":28,"ny":28,"refTime":"2025-07-11T21:00:00:Z","depth":0,"parameterNumber":2,"parameterNumberName":"U-component_of_WINDS"},"data":[0,0,0,0,0,0,0,0,0,0,0,0,0,0,0,0,0,0,0,0,0,0,0,0,0,0,0,0,0,0,0,0,0,0,0,0,0,0,0,0,0,0,0,0,0,0,0,0,0,0,0,0,0,0,0,0,0,0,2.4091,2.4093,0,2.42,2.4201,2.4203,2.4223,2.4222,2.4221,2.4221,2.4335,2.4338,2.4342,0,0,0,0,0,0,0,0,0,0,0,0,0,2.3905,2.3908,2.4091,2.4093,2.4094,2.42,2.4201,2.4203,2.4223,2.4222,2.4221,2.422,2.4333,2.4338,2.4342,0,0,0,0,0,0,0,0,0,0,0,0,0,2.3997,2.3909,2.4091,2.4117,2.412,2.42,2.4202,2.4203,2.4223,2.4222,2.4221,2.422,2.4332,2.4337,2.4343,2.4405,0,0,2.4361,2.4363,0,0,0,0,0,0,0,0,2.3992,2.4004,2.4112,2.4115,2.4119,2.4197,2.4177,2.4271,2.4224,2.4184,2.422,2.4219,2.429,2.4299,2.4322,2.4411,2.4415,2.4361,2.4365,2.4367,2.4369,0,0,0,0,0,0,0,2.3985,2.3999,2.4135,2.4113,2.4118,2.4124,2.4136,2.4195,2.4243,2.4188,2.4189,2.4202,2.4292,2.4317,2.4325,2.4417,2.4361,2.4366,2.437,2.4372,2.4563,2.4565,0,0,0,0,0,0,2.3974,2.3994,2.4131,2.4138,2.4051,2.4129,2.4142,2.4173,2.4243,2.4252,2.4203,2.4202,2.4308,2.4319,2.4329,2.4408,2.4367,2.4373,2.4376,2.4562,2.4564,2.4565,0,0,0,0,0,0,2.397,2.3986,2.4127,2.4066,2.4085,2.4133,2.4169,2.4176,2.4201,2.4254,2.4263,2.422,2.4307,2.4321,2.4386,2.4412,2.4375,2.4381,2.456,2.4562,2.4565,2.4564,0,0,0,0,0,0,2.3964,2.3984,2.4007,2.4067,2.4088,2.4181,2.417,2.4179,2.4211,2.4211,2.4272,2.4281,2.4307,2.4378,2.4392,2.4419,2.4385,2.4558,2.4561,2.4564,2.4562,2.4566,2.4569,0,0,0,0,0,2.3957,2.4003,2.4008,2.4025,2.4118,2.4182,2.4194,2.4223,2.4213,2.4237,2.4271,2.4279,2.4407,2.4384,2.4401,2.443,2.4556,2.456,2.4564,2.456,2.4565,2.4569,0,0,0,0,0,0,2.3946,2.4011,2.4018,2.4084,2.4127,2.4185,2.4217,2.4227,2.4275,2.4273,2.4307,2.4321,2.4384,2.4414,2.4387,2.4494,2.4481,2.4488,2.4473,2.4478,2.4482,2.4473,2.439,0,0,0,0,0,2.3952,2.3998,2.4052,2.4105,2.4127,2.4168,2.4197,2.4215,2.4262,2.4281,2.432,2.4365,2.4416,2.4449,2.4498,2.4566,2.458,2.4594,2.4598,2.4601,2.4607,2.4647,2.4654,2.4577,2.4577,2.4577,0,0,2.3963,2.4004,2.4031,2.4104,2.414,2.4188,2.4183,2.4234,2.427,2.4289,2.4352,2.4383,2.4436,2.4503,2.4535,2.453,2.4631,2.4606,2.4608,2.4612,2.4651,2.4658,2.4665,2.458,2.4579,2.4579,0,0,2.4008,2.4043,2.4092,2.4128,2.4182,2.4209,2.4221,2.4278,2.4298,2.4363,2.4378,2.4422,2.4508,2.4546,2.4576,2.4637,2.4646,2.4652,2.4672,2.471,2.4716,2.4722,2.4744,2.4752,2.4658,2.4658,2.4658,0,2.4016,2.4087,2.4116,2.4166,2.4198,2.4216,2.4267,2.43,2.4368,2.439,2.4383,2.4492,2.453,2.4606,2.4621,2.4645,2.466,2.4645,2.4713,2.4719,2.4724,2.4746,2.4755,2.4658,2.4658,2.4658,2.4658,0,2.4095,2.4144,2.4177,2.4242,2.4278,2.4327,2.4365,2.4398,2.4413,2.4441,2.4508,2.4553,2.4612,2.4632,2.4647,2.4711,2.4707,2.4706,2.4693,2.4732,2.4753,2.4761,2.4659,2.4659,2.4659,2.4658,0,0,2.4136,2.4215,2.4227,2.4257,2.4318,2.4358,2.4409,2.4466,2.4495,2.4541,2.4586,2.4659,2.4658,2.4693,2.4713,2.4746,2.4793,2.4742,2.4744,2.475,2.4867,2.4868,2.4877,2.4799,2.4801,2.4802,2.4863,0,2.4189,2.428,2.4308,2.4385,2.4432,2.445,2.4495,2.4538,2.4566,2.4611,2.4643,2.4694,2.469,2.4711,2.4745,2.478,2.4817,2.4776,2.4842,2.4844,2.4829,2.4888,2.4888,2.4944,2.4872,2.4873,2.4874,0,2.4263,2.431,2.4391,2.4447,2.4468,2.4508,2.4563,2.4606,2.4656,2.4674,2.4713,2.473,2.4786,2.477,2.4848,2.4819,2.4848,2.487,2.4873,2.4881,2.4862,2.4898,2.4962,2.497,2.4887,2.4886,2.4885,0,2.4286,2.4369,2.4429,2.4454,2.4521,2.4549,2.4578,2.4626,2.4659,2.4708,2.473,2.4785,2.4815,2.4858,2.489,2.4875,2.4966,2.4952,2.4983,2.4983,2.5002,2.5,2.5072,2.502,2.5019,2.5019,2.5019,0,2.4342,2.4392,2.4441,2.4477,2.4534,2.4565,2.4621,2.4651,2.4694,2.4738,2.4758,2.4799,2.4838,2.4885,2.4911,2.4972,2.4986,2.5003,2.5009,2.5002,2.4999,2.5021,2.5019,2.5021,2.5021,2.5021,2.502,0,2.4377,2.4412,2.4478,2.4536,2.4552,2.4591,2.4641,2.4678,2.4707,2.4763,2.4778,2.4824,2.488,2.4916,2.4988,2.5005,2.5073,2.5078,2.5055,2.5059,2.5088,2.5085,2.5177,2.5191,2.5128,2.5129,2.5129,0,2.4411,2.445,2.4512,2.4542,2.4571,2.462,2.4654,2.4687,2.4722,2.4782,2.4812,2.4869,2.4917,2.5006,2.5047,2.5102,2.5109,2.5137,2.5117,2.5109,2.511,2.5108,2.5112,2.514,2.5141,2.5141,2.5142,0,2.4469,2.4484,2.4531,2.4585,2.4624,2.4669,2.4713,2.4737,2.4778,2.4816,2.4873,2.491,2.4983,2.504,2.51,2.5131,2.5144,2.5148,2.5158,2.5151,2.5136,2.5145,2.5065,2.5145,2.5145,2.5145,2.5145,2.5144,2.4505,2.454,2.4589,2.4642,2.4678,2.4719,2.4757,2.4791,2.4839,2.4901,2.4918,2.4978,2.5028,2.5108,2.5141,2.5189,2.5186,2.5201,2.5205,2.5208,2.5209,2.5128,2.52,2.52,2.52,2.52,2.52,0,2.4564,2.4596,2.4644,2.4705,2.4747,2.4754,2.4804,2.4838,2.489,2.4936,2.4982,2.5048,2.5104,2.5149,2.5207,2.5237,2.5244,2.5251,2.5249,2.5257,2.5208,2.5193,2.5244,2.5244,2.5244,2.5244,2.5244,2.5244,2.4599,2.466,2.4681,2.476,2.4793,2.4851,2.4879,2.4917,2.4953,2.5026,2.5072,2.5101,2.5147,2.5208,2.526,2.5272,2.5292,2.5298,2.5311,2.5265,2.526,2.5255,2.5242,2.5302,2.5302,2.5356,2.5357,2.5357]},{"header":{"parameterUnit":"m.s-1","parameterCategory":1,"la1":30.2991,"la2":30.254,"lo1":-89.0895,"lo2":-89.0444,"dy":0.0017,"dx":0.0017,"nx":28,"ny":28,"refTime":"2025-07-11T21:00:00:Z","depth":0,"parameterNumber":3,"parameterNumberName":"V-component_of_WINDS"},"data":[0,0,0,0,0,0,0,0,0,0,0,0,0,0,0,0,0,0,0,0,0,0,0,0,0,0,0,0,0,0,0,0,0,0,0,0,0,0,0,0,0,0,0,0,0,0,0,0,0,0,0,0,0,0,0,0,0,0,-0.2761,-0.2762,0,-0.2816,-0.2816,-0.2817,-0.2854,-0.2854,-0.2854,-0.2854,-0.2911,-0.2912,-0.2913,0,0,0,0,0,0,0,0,0,0,0,0,0,-0.2689,-0.269,-0.2761,-0.2762,-0.2762,-0.2816,-0.2816,-0.2817,-0.2854,-0.2854,-0.2854,-0.2855,-0.291,-0.2912,-0.2913,0,0,0,0,0,0,0,0,0,0,0,0,0,-0.273,-0.269,-0.2761,-0.2787,-0.279,-0.2815,-0.2816,-0.2817,-0.2854,-0.2854,-0.2854,-0.2855,-0.291,-0.2911,-0.2913,-0.2917,0,0,-0.2919,-0.292,0,0,0,0,0,0,0,0,-0.2727,-0.2732,-0.2782,-0.2785,-0.2788,-0.2828,-0.2812,-0.2851,-0.2853,-0.2829,-0.2854,-0.2855,-0.2883,-0.2887,-0.2896,-0.292,-0.2922,-0.2919,-0.292,-0.2921,-0.2922,0,0,0,0,0,0,0,-0.2724,-0.273,-0.2783,-0.2783,-0.2787,-0.2796,-0.2802,-0.2819,-0.2853,-0.2831,-0.2834,-0.284,-0.2885,-0.2895,-0.2898,-0.2923,-0.2919,-0.2921,-0.2922,-0.2923,-0.2955,-0.2954,0,0,0,0,0,0,-0.2717,-0.2727,-0.2781,-0.2784,-0.2758,-0.2797,-0.2804,-0.2815,-0.2853,-0.2859,-0.284,-0.2842,-0.2891,-0.2896,-0.29,-0.2908,-0.2921,-0.2923,-0.2924,-0.2955,-0.2954,-0.2954,0,0,0,0,0,0,-0.2716,-0.2722,-0.2779,-0.2757,-0.2765,-0.2798,-0.281,-0.2816,-0.2826,-0.286,-0.2866,-0.2844,-0.2892,-0.2897,-0.2913,-0.2911,-0.2924,-0.2926,-0.2955,-0.2955,-0.2954,-0.2924,0,0,0,0,0,0,-0.2713,-0.2721,-0.2722,-0.2756,-0.2766,-0.279,-0.281,-0.2817,-0.2829,-0.2832,-0.2865,-0.2871,-0.2892,-0.291,-0.2915,-0.2914,-0.2927,-0.2956,-0.2955,-0.2954,-0.2926,-0.2923,-0.2921,0,0,0,0,0,-0.2711,-0.2711,-0.2722,-0.2729,-0.2768,-0.279,-0.2795,-0.282,-0.2829,-0.2831,-0.2853,-0.287,-0.291,-0.2911,-0.2917,-0.2916,-0.2956,-0.2955,-0.2955,-0.2927,-0.2923,-0.2921,0,0,0,0,0,0,-0.2676,-0.2716,-0.2729,-0.2741,-0.2762,-0.2796,-0.28,-0.2816,-0.2835,-0.2837,-0.2867,-0.2874,-0.2887,-0.2903,-0.2904,-0.2923,-0.2935,-0.2936,-0.2912,-0.2909,-0.2907,-0.2903,-0.2929,0,0,0,0,0,-0.267,-0.2684,-0.2719,-0.2726,-0.2736,-0.2766,-0.2776,-0.2794,-0.2817,-0.2826,-0.2849,-0.2871,-0.2889,-0.29,-0.2918,-0.2928,-0.2936,-0.2931,-0.2928,-0.2926,-0.2926,-0.2934,-0.2932,-0.2952,-0.2952,-0.2952,0,0,-0.2657,-0.2681,-0.2688,-0.2719,-0.2738,-0.2752,-0.2773,-0.2787,-0.2799,-0.2828,-0.2845,-0.2862,-0.2889,-0.2902,-0.2909,-0.2916,-0.2922,-0.2925,-0.2923,-0.2924,-0.2933,-0.2931,-0.2929,-0.2952,-0.2952,-0.2952,0,0,-0.2641,-0.266,-0.2669,-0.2687,-0.2715,-0.2735,-0.2737,-0.277,-0.2783,-0.28,-0.2823,-0.2837,-0.2867,-0.2885,-0.2898,-0.2891,-0.2907,-0.2896,-0.2882,-0.289,-0.2888,-0.2887,-0.2885,-0.2884,-0.2896,-0.2896,-0.2896,0,-0.2622,-0.2645,-0.2671,-0.2685,-0.2698,-0.2726,-0.2735,-0.2752,-0.2784,-0.2793,-0.28,-0.2839,-0.2859,-0.2878,-0.2876,-0.2885,-0.2889,-0.2892,-0.2886,-0.2885,-0.2884,-0.2883,-0.2882,-0.2894,-0.2894,-0.2894,-0.2895,0,-0.262,-0.2635,-0.2639,-0.267,-0.2684,-0.2695,-0.2724,-0.2735,-0.2752,-0.2771,-0.2789,-0.2814,-0.2838,-0.2844,-0.286,-0.2865,-0.2868,-0.288,-0.2893,-0.2881,-0.288,-0.288,-0.2892,-0.2893,-0.2893,-0.2893,0,0,-0.2584,-0.263,-0.2631,-0.2646,-0.2679,-0.2692,-0.2705,-0.2729,-0.2738,-0.2759,-0.2771,-0.2797,-0.2809,-0.2823,-0.2842,-0.2848,-0.2842,-0.286,-0.2861,-0.2856,-0.2851,-0.2842,-0.284,-0.2853,-0.2853,-0.2853,-0.2849,0,-0.2574,-0.2598,-0.2623,-0.2639,-0.2654,-0.2681,-0.2693,-0.2715,-0.2733,-0.2749,-0.277,-0.2788,-0.2802,-0.2811,-0.2819,-0.2841,-0.2841,-0.2842,-0.2865,-0.2866,-0.2858,-0.284,-0.283,-0.2825,-0.2848,-0.2848,-0.2848,0,-0.2565,-0.2586,-0.2603,-0.2636,-0.2644,-0.2653,-0.2678,-0.2693,-0.2718,-0.2732,-0.2749,-0.2769,-0.2784,-0.2795,-0.2818,-0.2817,-0.2829,-0.2841,-0.2842,-0.2845,-0.2856,-0.2844,-0.2823,-0.2823,-0.2848,-0.2848,-0.2848,0,-0.2538,-0.257,-0.2585,-0.2597,-0.2635,-0.2642,-0.2658,-0.2684,-0.2698,-0.2719,-0.2728,-0.2751,-0.2764,-0.2781,-0.2807,-0.2813,-0.2827,-0.284,-0.2839,-0.2839,-0.2842,-0.2841,-0.2823,-0.2848,-0.2848,-0.2848,-0.2848,0,-0.2524,-0.2534,-0.2574,-0.2583,-0.2595,-0.2624,-0.2635,-0.2654,-0.2677,-0.2691,-0.2716,-0.2728,-0.2761,-0.2778,-0.2798,-0.2814,-0.282,-0.2831,-0.2837,-0.2829,-0.2828,-0.2837,-0.2839,-0.2847,-0.2848,-0.2848,-0.2848,0,-0.2496,-0.2523,-0.2541,-0.2576,-0.2586,-0.2593,-0.2623,-0.2634,-0.2654,-0.2672,-0.2677,-0.271,-0.2731,-0.2758,-0.2787,-0.2801,-0.2815,-0.2823,-0.2806,-0.281,-0.2808,-0.2808,-0.2796,-0.2796,-0.2819,-0.2819,-0.2819,0,-0.2486,-0.2494,-0.2531,-0.2542,-0.2558,-0.2575,-0.2589,-0.2618,-0.2631,-0.2662,-0.2669,-0.2691,-0.2711,-0.2744,-0.277,-0.2793,-0.2802,-0.2796,-0.2806,-0.2798,-0.2803,-0.2802,-0.2804,-0.2794,-0.2794,-0.2793,-0.2793,0,-0.2465,-0.2479,-0.2498,-0.2521,-0.2537,-0.2557,-0.2579,-0.2586,-0.262,-0.2634,-0.2656,-0.2671,-0.2702,-0.2724,-0.2751,-0.2768,-0.2787,-0.279,-0.2791,-0.2784,-0.2774,-0.278,-0.2801,-0.279,-0.279,-0.2791,-0.2791,-0.2791,-0.2447,-0.2456,-0.2483,-0.2504,-0.2523,-0.2542,-0.2554,-0.2576,-0.2595,-0.2622,-0.2638,-0.266,-0.2687,-0.2724,-0.2741,-0.2758,-0.2765,-0.2767,-0.2767,-0.2767,-0.2765,-0.2771,-0.2763,-0.2763,-0.2764,-0.2764,-0.2764,0,-0.2428,-0.2447,-0.2466,-0.2495,-0.2512,-0.2527,-0.2552,-0.2565,-0.2583,-0.2607,-0.2626,-0.2652,-0.2674,-0.2702,-0.2727,-0.2736,-0.2745,-0.2741,-0.2741,-0.2745,-0.2757,-0.2754,-0.2734,-0.2734,-0.2734,-0.2734,-0.2734,-0.2734,-0.242,-0.2437,-0.2453,-0.248,-0.2499,-0.2521,-0.2533,-0.2552,-0.2571,-0.2598,-0.2617,-0.2636,-0.2661,-0.2688,-0.271,-0.2717,-0.2726,-0.272,-0.273,-0.2741,-0.2744,-0.2746,-0.2744,-0.2721,-0.2721,-0.2716,-0.2716,-0.2716]}]]